PBO Station Position Time Series. Reference Frame : NAM14
Format Version,1.1.0
4-character ID,HOFN
Station name,Hoefn_Iceland
Begin Date, 1997-06-29
End Date, 2019-10-07
Release Date, 2019-10-08
Reference position, 64.2672926065 North Latitude, -15.1979188725 East Longitude, 82.77416 meters elevation,
Date, North (mm), East (mm), Vertical (mm), North Std. Deviation (mm), East Std. Deviation (mm),              Vertical Std. Deviation (mm), Quality,
1997-06-29,0.00, 0.00, 0.00, 3.30, 2.42, 9.18, repro,
1997-06-30,-3.41, 1.07, 0.51, 3.42, 2.48, 9.55, repro,
1997-07-01,-3.16, 2.02, -6.76, 3.80, 3.23, 10.38, repro,
1997-07-02,-5.36, 6.70, -7.11, 3.98, 3.28, 10.59, repro,
1997-07-03,-2.45, -3.24, 7.23, 3.04, 2.10, 8.76, repro,
1997-07-04,-0.64, -0.35, 8.62, 3.20, 2.12, 9.56, repro,
1997-07-05,-4.55, 4.98, 5.18, 3.76, 3.36, 10.30, repro,
1997-07-06,-2.79, -0.15, 6.11, 2.96, 2.00, 8.87, repro,
1997-07-07,-1.66, -3.67, 2.64, 3.02, 2.05, 8.77, repro,
1997-07-08,-4.56, 3.02, -0.75, 3.80, 3.14, 9.95, repro,
1997-07-09,-2.40, -4.11, 2.89, 3.15, 2.10, 9.06, repro,
1997-07-10,-5.36, 3.11, -2.74, 4.00, 3.49, 10.30, repro,
1997-07-11,-4.84, -1.71, 10.62, 3.03, 2.07, 8.79, repro,
1997-07-12,-4.92, 0.40, 2.67, 3.77, 3.11, 9.96, repro,
1997-07-13,-5.23, 3.82, -2.44, 3.58, 2.81, 9.68, repro,
1997-07-14,-3.61, -2.39, 16.52, 2.98, 2.02, 8.93, repro,
1997-07-15,-5.39, 2.15, 4.92, 3.91, 3.08, 10.08, repro,
1997-07-16,-3.40, -0.83, 12.81, 3.61, 2.82, 9.77, repro,
1997-07-17,-2.06, 4.01, -0.86, 3.64, 2.80, 9.72, repro,
1997-07-18,-7.79, -1.40, 10.83, 3.63, 2.91, 9.86, repro,
1997-07-19,-2.11, -3.26, 3.23, 3.09, 2.10, 9.10, repro,
1997-07-20,-1.71, -2.10, 0.40, 3.18, 2.18, 9.79, repro,
1997-07-21,-5.68, -3.15, 7.67, 3.86, 2.63, 11.18, repro,
1997-07-22,-8.76, -1.83, -1.63, 3.61, 2.78, 9.42, repro,
1997-07-23,-6.98, 3.58, 4.04, 3.51, 2.64, 9.71, repro,
1997-07-24,-8.44, 3.05, 0.85, 3.65, 2.76, 10.11, repro,
1997-07-25,-3.57, -1.77, 4.55, 3.18, 2.16, 9.34, repro,
1997-07-26,-2.66, -1.26, 10.72, 2.95, 2.02, 8.75, repro,
1997-07-27,-1.11, -0.91, 8.93, 3.02, 2.07, 9.20, repro,
1997-07-28,-3.16, -0.16, 6.74, 2.93, 1.98, 8.66, repro,
1997-07-29,-4.58, -1.28, 16.16, 3.17, 2.13, 9.47, repro,
1997-07-31,-2.08, 0.90, 7.77, 3.36, 2.29, 10.17, repro,
1997-08-01,-2.20, -0.81, 12.68, 3.02, 2.05, 9.00, repro,
1997-08-02,-1.72, -0.96, 8.32, 2.93, 1.98, 8.65, repro,
1997-08-03,-5.52, -0.58, 17.24, 3.42, 2.25, 9.95, repro,
1997-08-04,-1.97, -0.85, 16.70, 3.04, 2.01, 9.05, repro,
1997-08-05,-2.46, -0.27, 9.40, 2.99, 1.99, 8.86, repro,
1997-08-06,-4.99, -1.72, 7.68, 2.90, 1.96, 8.57, repro,
1997-08-07,-2.19, -0.34, 4.91, 3.10, 2.09, 9.12, repro,
1997-08-08,-1.66, -0.83, 18.57, 3.02, 2.07, 8.86, repro,
1997-08-09,-2.28, -0.77, 13.56, 2.99, 2.02, 8.75, repro,
1997-08-10,-2.86, -0.39, 12.53, 3.08, 2.06, 9.04, repro,
1997-08-11,-3.01, -1.14, 8.41, 3.17, 2.11, 8.98, repro,
1997-08-12,-3.71, -0.81, 6.38, 3.02, 2.01, 9.01, repro,
1997-08-13,-0.92, -0.54, 16.08, 2.99, 2.01, 8.74, repro,
1997-08-14,-0.67, -2.17, 11.75, 3.20, 2.16, 9.67, repro,
1997-08-15,-0.84, -1.78, 12.12, 3.06, 2.09, 8.91, repro,
1997-08-16,-2.03, -1.92, 15.83, 3.00, 2.00, 8.84, repro,
1997-08-17,-3.65, 4.97, -2.76, 3.60, 2.66, 9.33, repro,
1997-08-18,-2.71, -1.54, 4.44, 3.35, 2.23, 9.94, repro,
1997-08-19,-0.99, 0.67, 10.00, 3.04, 2.02, 8.86, repro,
1997-08-20,-3.81, -2.11, 15.80, 2.95, 2.01, 8.67, repro,
1997-08-21,-1.87, -0.90, 7.41, 2.97, 2.04, 8.70, repro,
1997-08-22,-6.02, 2.37, -1.11, 3.32, 2.48, 9.17, repro,
1997-08-23,-2.05, 0.26, 13.38, 3.24, 2.14, 8.92, repro,
1997-08-24,-1.41, 0.54, 7.73, 3.04, 2.07, 8.92, repro,
1997-08-25,-2.05, -1.94, 14.49, 2.99, 2.03, 8.82, repro,
1997-08-26,-8.01, 0.41, 10.14, 3.18, 2.31, 8.88, repro,
1997-08-27,-1.85, -2.25, 15.88, 3.20, 2.09, 9.18, repro,
1997-08-28,-5.96, -0.30, 7.80, 4.28, 3.47, 11.11, repro,
1997-08-29,-2.80, 0.06, 15.21, 3.08, 2.11, 8.92, repro,
1997-08-30,-2.44, -1.38, 8.38, 3.09, 2.06, 8.95, repro,
1997-08-31,-2.14, -2.05, 2.69, 3.11, 2.08, 8.96, repro,
1997-09-01,-1.86, -1.78, 11.67, 3.07, 2.08, 8.96, repro,
1997-09-02,-2.62, -2.48, 3.92, 3.02, 2.06, 8.91, repro,
1997-09-03,-5.05, -1.01, 12.59, 3.20, 2.21, 9.21, repro,
1997-09-04,-4.01, -1.44, 4.58, 3.52, 2.34, 10.24, repro,
1997-09-05,-2.09, 0.17, 5.63, 3.04, 2.07, 9.06, repro,
1997-09-06,-1.21, -0.05, 8.84, 3.05, 2.05, 8.70, repro,
1997-09-07,-3.64, -2.38, 20.90, 3.04, 2.05, 8.90, repro,
1997-09-08,-1.82, -1.70, -2.86, 3.02, 2.02, 8.89, repro,
1997-09-09,-6.12, -5.72, 10.91, 4.31, 3.59, 10.94, repro,
1997-09-10,-2.11, 1.58, -2.57, 3.77, 3.07, 10.04, repro,
1997-09-11,-2.01, -1.48, 7.64, 3.95, 3.36, 10.58, repro,
1997-09-12,-3.18, -1.59, 9.24, 3.08, 2.09, 8.85, repro,
1997-09-13,0.18, -0.75, 8.13, 3.14, 2.08, 9.17, repro,
1997-09-14,-2.10, -0.75, 6.81, 2.97, 2.02, 8.60, repro,
1997-09-15,-1.83, -2.80, 12.96, 3.08, 2.10, 8.91, repro,
1997-09-16,-1.52, -0.93, 3.31, 3.02, 2.03, 8.80, repro,
1997-09-17,-6.98, -0.88, -10.54, 3.41, 2.36, 10.38, repro,
1997-09-18,-1.56, -2.19, -1.20, 3.32, 2.25, 9.85, repro,
1997-09-19,1.80, -0.72, 1.75, 3.09, 2.07, 9.15, repro,
1997-09-20,-2.09, -0.92, 5.66, 3.12, 2.12, 8.91, repro,
1997-09-21,-4.76, -1.22, 8.61, 3.30, 2.18, 9.79, repro,
1997-09-23,-1.07, -2.44, 12.92, 3.03, 2.09, 8.97, repro,
1997-09-24,-3.75, -1.39, 12.00, 2.97, 1.99, 8.62, repro,
1997-09-25,-1.53, 0.20, 10.17, 3.11, 2.07, 9.17, repro,
1997-09-26,-4.21, 0.59, 14.93, 3.08, 2.14, 8.99, repro,
1997-09-27,-5.88, -1.21, 20.98, 3.22, 2.20, 9.14, repro,
1997-09-28,-4.31, -2.57, 6.84, 3.17, 2.16, 9.43, repro,
1997-09-29,-1.97, -1.45, 16.33, 3.20, 2.20, 9.44, repro,
1997-09-30,-2.46, -1.13, 10.90, 3.11, 2.10, 9.03, repro,
1997-10-01,-0.13, -3.27, 0.83, 3.67, 2.29, 9.83, repro,
1997-10-02,-3.14, 1.40, 14.27, 3.07, 2.06, 9.04, repro,
1997-10-03,2.77, -1.55, 14.53, 3.23, 2.21, 9.07, repro,
1997-10-04,-0.36, -0.91, 10.03, 3.09, 2.06, 8.86, repro,
1997-10-05,-5.95, -3.67, 24.89, 3.15, 2.13, 8.93, repro,
1997-10-06,-2.32, -1.04, 14.79, 2.91, 2.00, 8.61, repro,
1997-10-07,-4.87, 1.84, 14.23, 4.59, 3.83, 10.80, repro,
1997-10-08,-6.77, 1.10, 2.70, 3.88, 3.21, 10.00, repro,
1997-10-09,-5.72, -1.39, -2.36, 3.73, 2.99, 10.15, repro,
1997-10-10,-1.23, 5.73, -0.40, 4.44, 3.57, 11.53, repro,
1997-10-11,-2.44, -1.66, 5.89, 3.32, 2.28, 9.92, repro,
1997-10-12,-2.84, 2.29, 10.40, 3.78, 2.98, 9.58, repro,
1997-10-13,-1.26, -1.82, -1.76, 3.00, 2.07, 8.82, repro,
1997-10-14,-0.21, 13.68, -20.16, 3.93, 3.25, 10.16, repro,
1997-10-15,-1.15, 7.71, -5.80, 3.78, 3.02, 10.03, repro,
1997-10-16,-3.60, 10.10, -4.20, 4.14, 3.63, 10.82, repro,
1997-10-17,-6.10, 7.13, -14.09, 4.58, 4.01, 11.63, repro,
1997-10-18,-4.38, 1.06, -5.60, 3.90, 3.12, 9.80, repro,
1997-10-19,-5.28, 5.31, -11.00, 4.04, 3.31, 10.15, repro,
1997-10-20,-6.72, 3.60, -9.33, 4.02, 3.36, 10.05, repro,
1997-10-21,0.07, 2.77, 2.36, 4.01, 3.36, 10.18, repro,
1997-10-22,-0.78, -2.43, -3.83, 4.25, 3.65, 10.58, repro,
1997-10-23,-1.35, -1.54, 2.26, 3.89, 3.05, 10.48, repro,
1997-10-24,-8.72, 0.62, -3.90, 3.99, 3.22, 10.09, repro,
1997-10-25,-12.07, 2.95, -2.40, 4.43, 3.48, 11.16, repro,
1997-10-26,-6.61, -3.01, 4.55, 4.24, 3.33, 10.47, repro,
1997-10-27,-6.98, 0.58, -8.17, 4.32, 3.86, 11.49, repro,
1997-10-29,0.98, 3.43, -2.54, 4.69, 3.75, 10.92, repro,
1997-10-30,-8.55, 5.39, -8.27, 3.72, 3.00, 9.80, repro,
1997-10-31,-9.53, 4.53, 3.78, 5.19, 4.05, 15.22, repro,
1997-11-03,-2.36, 5.70, -16.14, 5.57, 4.33, 16.89, repro,
1997-11-04,-4.43, 2.71, 2.46, 4.45, 3.90, 10.93, repro,
1997-11-05,0.66, 12.19, -1.96, 3.75, 2.98, 10.01, repro,
1997-11-06,-7.34, 1.54, 10.15, 4.12, 3.42, 10.88, repro,
1997-11-07,-3.70, 0.76, 16.58, 4.56, 3.78, 11.78, repro,
1997-11-08,-5.14, 5.33, 8.14, 4.09, 3.31, 10.41, repro,
1997-11-09,-5.37, 7.15, 2.20, 4.16, 3.43, 10.46, repro,
1997-11-10,-9.58, 1.21, 13.26, 3.90, 3.05, 10.59, repro,
1997-11-11,-8.00, 7.36, 4.15, 4.37, 3.66, 11.01, repro,
1997-11-12,-5.63, 3.88, 5.47, 4.02, 3.27, 10.13, repro,
1997-11-13,-8.23, 12.40, -8.64, 4.60, 3.92, 11.58, repro,
1997-11-14,-7.86, 5.33, 6.45, 4.00, 3.34, 10.83, repro,
1997-11-15,-6.72, 4.20, -1.60, 3.98, 3.15, 10.21, repro,
1997-11-16,-7.23, 7.44, -0.88, 4.07, 3.35, 10.29, repro,
1997-11-17,-7.10, 10.13, -2.14, 4.85, 4.28, 11.82, repro,
1997-11-18,-3.32, 18.22, -6.95, 5.18, 4.73, 12.43, repro,
1997-11-19,-7.11, 9.64, -1.46, 4.34, 3.82, 11.39, repro,
1997-11-20,-4.49, 3.80, 7.60, 3.93, 3.27, 10.82, repro,
1997-11-21,2.85, 14.46, -9.41, 4.10, 3.51, 11.12, repro,
1997-11-22,-14.17, 7.77, -13.95, 5.40, 4.80, 14.28, repro,
1997-11-23,-5.20, -0.03, -3.05, 5.01, 3.97, 12.79, repro,
1997-11-24,3.17, 11.20, -12.65, 5.08, 4.02, 15.09, repro,
1997-11-27,-5.61, -1.25, 2.36, 5.33, 4.28, 13.78, repro,
1997-11-28,-5.43, 8.54, -22.62, 5.00, 4.38, 12.75, repro,
1997-11-29,-1.74, 11.83, -20.81, 4.19, 3.41, 10.22, repro,
1997-11-30,-0.53, -0.87, 17.31, 3.00, 2.05, 8.89, repro,
1997-12-01,-1.00, 10.37, -14.82, 4.56, 3.96, 11.35, repro,
1997-12-02,-4.99, 8.42, -8.74, 4.13, 3.53, 10.71, repro,
1997-12-04,-4.21, 4.09, 1.25, 4.37, 3.79, 11.08, repro,
1997-12-05,-2.06, 9.89, 2.38, 4.27, 3.50, 10.50, repro,
1997-12-07,-0.97, 4.83, 13.83, 4.04, 3.30, 10.19, repro,
1997-12-08,-0.03, 10.19, -1.39, 4.41, 4.01, 11.19, repro,
1997-12-09,-3.43, -0.50, 17.10, 3.05, 2.05, 8.86, repro,
1997-12-10,-5.97, 5.91, 14.32, 4.25, 3.49, 10.94, repro,
1997-12-11,-8.15, 8.53, 5.66, 4.82, 4.07, 12.14, repro,
1997-12-12,-3.77, 7.11, 5.18, 4.15, 3.51, 10.62, repro,
1997-12-13,-0.80, 3.52, 9.80, 4.02, 3.40, 10.57, repro,
1997-12-14,-2.53, 8.93, 1.88, 4.20, 3.75, 10.76, repro,
1997-12-15,1.30, 7.14, -7.77, 4.17, 3.60, 10.89, repro,
1997-12-16,0.30, 5.29, 1.54, 4.35, 3.69, 11.41, repro,
1997-12-17,-1.03, 9.57, -12.63, 4.53, 4.02, 11.29, repro,
1997-12-18,-4.07, 8.52, -3.13, 4.02, 3.19, 9.73, repro,
1997-12-19,-1.95, 3.62, 5.92, 3.72, 2.93, 9.23, repro,
1997-12-20,-3.01, -1.44, 9.92, 3.03, 2.09, 8.55, repro,
1997-12-21,1.95, 11.90, 1.71, 3.60, 2.83, 9.41, repro,
1997-12-22,1.19, 9.69, -0.39, 3.42, 2.69, 9.15, repro,
1997-12-23,-0.15, 10.44, -1.21, 3.39, 2.62, 9.44, repro,
1997-12-24,-2.06, 10.02, 0.99, 3.52, 2.74, 9.36, repro,
1997-12-25,0.79, 7.60, 11.30, 4.00, 3.17, 10.19, repro,
1997-12-26,-3.98, 9.55, 0.46, 4.46, 3.49, 11.60, repro,
1997-12-27,-1.62, 12.76, 6.04, 3.95, 3.07, 10.64, repro,
1997-12-28,-3.44, 9.28, -8.70, 3.95, 3.06, 10.34, repro,
1997-12-29,-7.11, 4.06, 2.14, 3.79, 3.05, 9.69, repro,
1997-12-30,-1.27, 0.88, 18.82, 3.83, 2.57, 10.87, repro,
1997-12-31,-2.63, -0.95, 20.28, 3.06, 2.10, 8.72, repro,
1998-01-01,-4.10, 0.56, 15.50, 3.20, 2.18, 9.19, repro,
1998-01-02,-4.88, 1.14, 22.78, 2.99, 2.06, 8.77, repro,
1998-01-03,-2.78, -0.52, 22.21, 3.38, 2.26, 9.85, repro,
1998-01-04,3.99, 3.95, -2.86, 3.15, 2.16, 9.07, repro,
1998-01-05,-2.43, -0.05, 4.63, 3.05, 2.11, 8.79, repro,
1998-01-06,1.22, -3.30, -5.08, 3.27, 2.21, 9.47, repro,
1998-01-07,0.64, 3.25, -2.54, 3.55, 2.45, 10.13, repro,
1998-01-08,-1.61, -1.69, 1.51, 3.26, 2.20, 9.47, repro,
1998-01-09,-0.55, -1.39, -8.07, 3.25, 2.29, 9.51, repro,
1998-01-10,-1.89, -1.40, -0.98, 3.57, 2.87, 9.80, repro,
1998-01-11,-2.63, -2.32, -7.26, 3.71, 2.50, 9.76, repro,
1998-01-12,-5.68, -5.51, 6.14, 3.29, 2.27, 9.29, repro,
1998-01-13,-1.31, -1.86, 9.12, 3.31, 2.21, 9.72, repro,
1998-01-14,-4.52, -2.74, 13.89, 3.28, 2.19, 9.44, repro,
1998-01-15,-4.60, 1.88, 9.85, 3.99, 3.26, 10.41, repro,
1998-01-16,-2.68, -3.10, 6.74, 3.33, 2.23, 9.69, repro,
1998-01-17,-1.43, -3.07, 12.70, 3.21, 2.23, 9.20, repro,
1998-01-18,-1.29, -5.80, 1.81, 3.56, 2.41, 10.52, repro,
1998-01-20,1.33, -4.64, -11.03, 4.38, 2.80, 13.42, repro,
1998-01-21,-0.36, -0.65, 0.65, 3.09, 2.11, 8.70, repro,
1998-01-22,-3.25, -2.46, 9.62, 3.04, 2.09, 8.64, repro,
1998-01-23,-0.14, -2.67, 8.34, 3.04, 2.10, 8.75, repro,
1998-01-24,-1.43, -2.27, 9.82, 3.05, 2.09, 8.81, repro,
1998-01-25,4.49, 9.58, -20.00, 3.62, 2.81, 9.24, repro,
1998-01-26,-2.03, -3.88, -4.28, 3.72, 2.46, 11.22, repro,
1998-01-27,1.55, -3.82, 2.57, 3.90, 2.61, 11.11, repro,
1998-01-28,0.63, -2.43, 8.18, 3.13, 2.18, 8.67, repro,
1998-01-29,-0.40, -3.38, 0.23, 3.14, 2.10, 8.92, repro,
1998-01-30,-0.24, -2.31, 1.48, 3.17, 2.14, 9.09, repro,
1998-01-31,-2.11, -3.88, 3.29, 3.23, 2.23, 9.31, repro,
1998-02-01,2.77, -4.76, -4.15, 3.15, 2.11, 8.62, repro,
1998-02-02,-0.03, -3.81, 5.13, 2.98, 2.04, 8.33, repro,
1998-02-03,-1.59, -1.83, 11.18, 2.91, 1.97, 8.15, repro,
1998-02-04,-0.58, -3.81, -1.38, 4.30, 2.70, 12.84, repro,
1998-02-05,-1.28, -0.52, 13.83, 3.60, 2.32, 10.10, repro,
1998-02-06,0.21, -1.97, 15.27, 3.07, 2.03, 8.48, repro,
1998-02-07,-1.41, -1.99, 16.22, 3.09, 2.12, 8.57, repro,
1998-02-08,-1.87, -2.81, 6.15, 3.27, 2.21, 9.08, repro,
1998-02-09,0.59, -0.51, 18.11, 3.10, 2.07, 8.78, repro,
1998-02-10,0.58, -0.18, 13.74, 3.08, 2.05, 8.71, repro,
1998-02-11,-1.53, -0.54, 17.40, 3.28, 2.18, 9.59, repro,
1998-02-12,-0.10, 0.59, 18.06, 3.43, 2.25, 9.05, repro,
1998-02-13,1.28, -0.27, 13.81, 3.00, 2.03, 8.36, repro,
1998-02-14,2.46, -2.56, 3.04, 3.00, 2.05, 8.53, repro,
1998-02-15,-0.04, -0.57, 11.05, 3.01, 2.00, 8.60, repro,
1998-02-16,3.35, -1.59, 5.65, 3.29, 2.25, 8.92, repro,
1998-02-17,-1.67, -1.59, 1.59, 3.37, 2.31, 9.97, repro,
1998-02-18,-1.82, -3.11, 3.06, 3.49, 2.39, 10.02, repro,
1998-02-19,-1.51, -1.82, 19.07, 3.17, 2.19, 8.87, repro,
1998-02-20,0.74, -3.51, 24.89, 3.28, 2.27, 9.38, repro,
1998-02-21,1.30, -2.76, 17.80, 3.10, 2.09, 8.61, repro,
1998-02-22,-0.66, -5.82, 20.74, 3.13, 2.10, 8.95, repro,
1998-02-23,0.46, -5.49, 7.28, 3.08, 2.06, 8.75, repro,
1998-02-24,-2.55, -2.60, 19.07, 3.08, 2.13, 8.56, repro,
1998-02-25,-0.10, -3.22, 12.61, 3.01, 2.08, 8.45, repro,
1998-02-26,-1.23, 4.74, -5.09, 3.68, 2.87, 9.42, repro,
1998-02-27,2.89, -2.74, 1.83, 3.31, 2.31, 9.03, repro,
1998-02-28,1.75, -3.39, 10.38, 3.32, 2.28, 9.32, repro,
1998-03-01,1.16, -4.84, 0.59, 3.27, 2.21, 9.10, repro,
1998-03-02,1.86, -2.28, 10.57, 3.12, 2.10, 8.70, repro,
1998-03-03,1.23, 0.34, 5.04, 3.48, 2.51, 9.32, repro,
1998-03-04,-2.69, 2.87, -6.18, 3.49, 2.65, 9.34, repro,
1998-03-05,-0.88, -4.39, 8.42, 2.98, 1.98, 8.47, repro,
1998-03-06,-0.18, -5.43, 9.91, 2.94, 2.00, 8.41, repro,
1998-03-07,-1.80, -4.19, 8.78, 2.95, 2.01, 8.52, repro,
1998-03-08,1.01, -4.97, -3.05, 3.08, 2.13, 8.72, repro,
1998-03-09,0.90, -4.24, 7.73, 2.95, 2.02, 8.31, repro,
1998-03-10,1.25, -2.94, 3.87, 3.71, 2.51, 11.09, repro,
1998-03-11,1.90, -5.18, 9.58, 3.26, 2.20, 9.32, repro,
1998-03-12,-1.74, 6.79, -15.15, 3.74, 3.01, 9.55, repro,
1998-03-13,2.25, 4.32, -4.79, 3.64, 2.94, 9.57, repro,
1998-03-14,-0.37, -4.87, 16.30, 3.10, 2.12, 8.97, repro,
1998-03-15,1.94, 8.70, 0.44, 4.09, 3.16, 10.33, repro,
1998-03-16,-1.03, -1.17, 22.61, 3.17, 2.15, 9.17, repro,
1998-03-17,0.55, 1.28, 3.71, 3.37, 2.49, 8.99, repro,
1998-03-18,1.98, -5.56, 3.64, 2.93, 2.04, 8.31, repro,
1998-03-19,-0.71, -4.34, 9.49, 2.98, 2.05, 8.45, repro,
1998-03-20,0.77, -3.68, 6.81, 3.07, 2.11, 8.95, repro,
1998-03-21,-1.04, -2.08, 9.28, 3.08, 2.07, 8.75, repro,
1998-03-23,-0.10, -3.65, 7.67, 3.10, 2.10, 8.68, repro,
1998-03-24,-0.62, -4.51, 6.86, 3.16, 2.17, 9.05, repro,
1998-03-25,-2.59, -2.11, 13.78, 3.11, 2.06, 8.65, repro,
1998-03-26,-1.37, -3.96, 13.68, 3.09, 2.14, 8.52, repro,
1998-03-27,-3.83, -4.30, 10.51, 3.37, 2.40, 9.09, repro,
1998-03-28,-4.77, -4.40, 15.55, 3.10, 2.19, 8.57, repro,
1998-03-29,0.64, -4.48, 7.33, 3.26, 2.25, 9.55, repro,
1998-03-30,-1.38, -5.23, 7.26, 3.11, 2.14, 9.05, repro,
1998-03-31,0.29, -3.58, 9.04, 3.13, 2.18, 8.92, repro,
1998-04-01,-1.71, -3.63, 2.85, 3.81, 2.51, 11.23, repro,
1998-04-02,-0.85, -3.52, 13.87, 3.14, 2.19, 9.09, repro,
1998-04-03,0.38, 0.81, -3.55, 3.16, 2.20, 8.81, repro,
1998-04-04,8.73, -5.55, 18.50, 3.17, 2.19, 8.99, repro,
1998-04-05,-5.84, -1.53, -13.53, 10.24, 6.02, 33.33, repro,
1998-04-07,-0.97, -4.26, 0.39, 4.10, 2.83, 12.11, repro,
1998-04-08,0.31, -3.07, 3.17, 3.65, 2.51, 10.50, repro,
1998-04-09,3.68, -4.90, 3.13, 3.13, 2.12, 9.01, repro,
1998-04-10,-2.29, 1.88, -9.30, 3.72, 2.83, 9.88, repro,
1998-04-11,1.12, -6.85, 19.51, 3.31, 2.33, 9.46, repro,
1998-04-12,1.27, -4.12, 9.72, 3.08, 2.12, 8.93, repro,
1998-04-13,0.54, -3.65, 16.96, 3.06, 2.06, 8.59, repro,
1998-04-14,0.44, -4.10, 16.55, 2.92, 2.00, 8.46, repro,
1998-04-15,-1.19, -5.34, 16.18, 3.03, 2.01, 8.52, repro,
1998-04-16,0.33, -4.35, 15.55, 3.00, 1.98, 8.53, repro,
1998-04-17,-1.06, -3.91, 14.00, 3.04, 2.04, 8.47, repro,
1998-04-18,-0.42, -4.18, 12.23, 3.10, 2.16, 8.47, repro,
1998-04-19,0.18, -5.31, 13.27, 2.91, 2.00, 8.37, repro,
1998-04-20,1.03, -4.88, 13.14, 2.98, 2.05, 8.57, repro,
1998-04-21,0.02, -4.71, 11.11, 3.07, 2.07, 8.65, repro,
1998-04-22,-3.06, -5.08, 4.90, 2.95, 1.99, 8.42, repro,
1998-04-23,0.95, 1.62, -7.33, 3.51, 2.76, 9.17, repro,
1998-04-24,0.48, -5.15, 5.34, 3.32, 2.23, 9.72, repro,
1998-04-25,5.74, -2.18, -7.86, 3.07, 2.14, 8.90, repro,
1998-04-26,0.93, -4.41, 4.54, 3.32, 2.25, 9.65, repro,
1998-04-27,-0.80, -6.69, 10.15, 3.10, 2.17, 9.05, repro,
1998-04-28,-0.89, -5.97, 14.61, 3.01, 2.06, 8.56, repro,
1998-04-29,1.04, -4.95, 14.58, 3.03, 2.03, 8.44, repro,
1998-04-30,1.37, -5.52, 1.86, 2.95, 2.05, 8.40, repro,
1998-05-01,-1.34, -4.67, 2.06, 3.34, 2.47, 8.87, repro,
1998-05-02,-1.59, -5.70, 5.62, 3.68, 2.39, 10.67, repro,
1998-05-03,-2.38, -3.17, 14.59, 3.33, 2.17, 9.74, repro,
1998-05-04,1.57, -6.68, 2.80, 3.54, 2.37, 10.24, repro,
1998-05-05,1.54, -5.50, 3.58, 3.21, 2.15, 9.44, repro,
1998-05-06,0.61, -7.98, 7.26, 2.95, 2.03, 8.76, repro,
1998-05-07,3.07, -5.16, 15.94, 2.92, 1.99, 8.48, repro,
1998-05-08,0.19, -5.28, 5.31, 2.98, 2.03, 8.82, repro,
1998-05-09,1.27, -5.38, 8.76, 2.97, 2.01, 8.72, repro,
1998-05-10,0.91, -6.45, 10.08, 2.94, 1.99, 8.49, repro,
1998-05-11,1.05, -3.96, 6.34, 2.95, 2.02, 8.42, repro,
1998-05-12,2.66, -6.84, -2.35, 3.01, 2.03, 8.62, repro,
1998-05-13,0.39, -4.76, 16.88, 3.01, 2.09, 8.78, repro,
1998-05-14,-0.12, -5.16, 11.87, 2.90, 1.97, 8.47, repro,
1998-05-15,1.02, -4.10, 4.07, 2.88, 2.01, 8.49, repro,
1998-05-16,3.22, 0.38, 6.83, 3.20, 2.39, 8.61, repro,
1998-05-17,3.63, -4.42, 8.25, 2.92, 2.03, 8.45, repro,
1998-05-18,2.31, -5.45, 6.05, 3.00, 2.06, 8.68, repro,
1998-05-19,1.82, -5.86, 2.80, 2.94, 2.03, 8.46, repro,
1998-05-20,1.73, -4.10, -2.80, 2.88, 1.99, 8.35, repro,
1998-05-21,1.43, -2.82, 3.57, 3.32, 2.26, 8.94, repro,
1998-05-22,0.13, -5.15, -8.52, 2.89, 1.98, 8.48, repro,
1998-05-23,6.11, -5.49, 3.20, 3.08, 2.12, 8.86, repro,
1998-05-24,-0.34, -5.11, 6.41, 3.02, 2.05, 8.89, repro,
1998-05-25,2.99, -5.96, 2.26, 3.07, 2.07, 8.85, repro,
1998-05-26,1.87, -5.61, 7.50, 2.99, 2.05, 8.74, repro,
1998-05-27,-1.24, -6.89, 2.06, 2.96, 2.02, 8.52, repro,
1998-05-28,2.42, -7.44, -0.61, 2.90, 1.97, 8.41, repro,
1998-05-29,1.89, -5.08, 8.82, 3.02, 2.07, 8.74, repro,
1998-05-30,3.60, -4.54, -5.02, 3.20, 2.18, 9.60, repro,
1998-05-31,2.17, -4.78, 4.30, 2.86, 2.01, 8.36, repro,
1998-06-01,2.05, -5.25, -0.53, 2.93, 2.06, 8.51, repro,
1998-06-02,2.20, -5.17, 5.42, 2.93, 2.02, 8.41, repro,
1998-06-03,3.14, -4.91, 0.59, 2.93, 2.05, 8.41, repro,
1998-06-04,2.19, -4.88, 1.79, 3.07, 2.17, 8.80, repro,
1998-06-05,1.95, -4.69, 5.21, 3.12, 2.17, 8.80, repro,
1998-06-06,3.51, -5.17, 5.04, 3.10, 2.11, 8.98, repro,
1998-06-07,2.38, -3.71, 7.52, 3.18, 2.16, 9.32, repro,
1998-06-08,6.24, 1.97, -1.61, 3.37, 2.68, 9.03, repro,
1998-06-09,3.55, -5.24, 10.54, 2.99, 2.04, 8.42, repro,
1998-06-10,2.36, -4.71, 3.98, 3.07, 2.09, 8.77, repro,
1998-06-11,0.39, -6.04, 6.13, 2.92, 2.01, 8.39, repro,
1998-06-12,1.45, -4.83, 4.75, 2.96, 2.01, 8.48, repro,
1998-06-13,-0.30, -5.36, 7.57, 2.89, 1.99, 8.27, repro,
1998-06-14,3.28, -6.08, -0.84, 3.03, 2.02, 8.61, repro,
1998-06-15,0.34, -5.41, 6.92, 3.08, 2.10, 8.61, repro,
1998-06-16,0.97, -5.45, 5.31, 3.06, 2.07, 8.58, repro,
1998-06-17,0.01, -3.96, -0.49, 2.90, 2.00, 8.31, repro,
1998-06-18,0.16, -3.77, -0.84, 3.29, 2.31, 8.81, repro,
1998-06-19,1.95, -5.83, 2.10, 3.01, 2.00, 8.39, repro,
1998-06-20,1.04, -5.54, 0.09, 3.07, 2.10, 8.65, repro,
1998-06-21,0.55, -8.39, 9.35, 3.05, 2.10, 8.70, repro,
1998-06-22,-1.41, -4.65, 12.68, 3.34, 2.25, 9.33, repro,
1998-06-23,1.35, -5.90, 0.14, 3.14, 2.13, 9.01, repro,
1998-06-24,3.63, -6.26, -12.83, 3.27, 2.20, 9.41, repro,
1998-06-25,-1.24, -12.84, 18.87, 3.02, 2.05, 8.60, repro,
1998-06-26,-2.52, -4.72, 1.36, 3.34, 2.26, 9.77, repro,
1998-06-27,-1.55, -6.95, -0.54, 3.05, 2.10, 8.82, repro,
1998-06-28,-0.12, -5.59, 7.59, 2.92, 2.01, 8.36, repro,
1998-06-29,-0.22, -5.41, 0.73, 2.96, 2.05, 8.72, repro,
1998-06-30,3.27, -6.51, -3.55, 3.16, 2.13, 9.03, repro,
1998-07-01,2.82, -4.53, 8.98, 3.01, 2.03, 8.71, repro,
1998-07-02,-0.45, -5.13, 8.19, 2.98, 2.03, 8.60, repro,
1998-07-03,0.47, -5.53, 9.13, 2.96, 2.03, 8.72, repro,
1998-07-04,2.38, -7.01, -3.22, 3.01, 2.05, 8.68, repro,
1998-07-05,-0.85, -4.20, -1.23, 3.05, 2.06, 8.85, repro,
1998-07-06,1.67, -3.34, -2.68, 3.49, 2.24, 9.89, repro,
1998-07-07,0.54, -5.09, 7.66, 2.95, 2.02, 8.61, repro,
1998-07-08,-0.72, -4.19, 4.30, 2.95, 2.02, 8.65, repro,
1998-07-09,-2.31, -3.25, 6.74, 2.92, 2.02, 8.75, repro,
1998-07-10,0.16, -3.87, 4.12, 3.02, 2.07, 8.81, repro,
1998-07-11,1.21, -4.75, -1.35, 3.11, 2.08, 8.76, repro,
1998-07-12,-0.70, -5.75, 0.76, 2.97, 1.99, 8.48, repro,
1998-07-13,-0.96, -5.73, 1.19, 2.95, 2.01, 8.56, repro,
1998-07-14,0.08, -4.54, 0.97, 3.41, 2.72, 9.00, repro,
1998-07-15,-1.21, -3.09, 8.88, 2.94, 2.02, 8.47, repro,
1998-07-16,-3.17, -6.45, 13.83, 3.20, 2.20, 9.63, repro,
1998-07-17,-3.67, -5.22, 11.49, 2.99, 2.04, 8.69, repro,
1998-07-18,-0.11, -5.34, -0.78, 2.95, 2.04, 8.47, repro,
1998-07-19,0.82, -5.28, 5.48, 3.23, 2.23, 9.69, repro,
1998-07-21,2.12, -6.54, 9.10, 3.79, 2.79, 10.44, repro,
1998-07-22,0.80, -4.49, 10.78, 3.07, 2.09, 8.68, repro,
1998-07-23,3.87, -3.50, -2.19, 3.60, 2.49, 10.67, repro,
1998-07-24,0.30, -3.43, 10.04, 3.12, 2.16, 8.86, repro,
1998-07-25,0.87, -5.86, -0.81, 2.92, 1.98, 8.44, repro,
1998-07-26,0.12, -6.53, 0.42, 3.22, 2.21, 9.62, repro,
1998-07-27,0.99, -2.73, 9.03, 3.76, 2.50, 11.63, repro,
1998-07-28,0.87, -5.22, 3.69, 3.10, 2.12, 8.68, repro,
1998-07-29,-3.09, -4.78, 12.79, 2.84, 1.93, 8.32, repro,
1998-07-30,-2.08, -6.19, 9.39, 2.91, 2.00, 8.47, repro,
1998-07-31,0.64, -5.08, 9.15, 3.13, 2.09, 8.93, repro,
1998-08-01,-1.15, -2.94, 9.87, 2.94, 2.00, 8.52, repro,
1998-08-02,0.15, -5.33, 10.80, 2.85, 1.97, 8.41, repro,
1998-08-03,-3.01, -5.09, 8.17, 2.93, 1.99, 8.41, repro,
1998-08-04,0.65, -5.95, 15.31, 2.96, 2.04, 8.75, repro,
1998-08-05,-1.24, -3.38, 11.26, 2.97, 2.02, 8.68, repro,
1998-08-06,1.91, -3.14, -1.57, 3.31, 2.16, 9.42, repro,
1998-08-07,1.53, -6.30, 5.03, 3.06, 2.07, 8.93, repro,
1998-08-08,1.32, -5.10, 8.28, 3.10, 2.07, 9.27, repro,
1998-08-09,-1.49, -5.09, 4.12, 2.94, 2.03, 8.52, repro,
1998-08-10,-1.50, -6.93, -0.93, 3.01, 2.08, 8.72, repro,
1998-08-11,-1.20, -5.23, 3.09, 2.90, 1.99, 8.39, repro,
1998-08-12,-2.44, -4.60, 12.44, 2.97, 2.04, 8.49, repro,
1998-08-13,0.84, -6.35, 6.42, 2.85, 1.92, 8.24, repro,
1998-08-14,0.89, -3.72, 2.75, 2.97, 2.02, 8.59, repro,
1998-08-15,-0.99, -3.68, 4.04, 2.93, 2.01, 8.47, repro,
1998-08-16,0.00, -4.86, 2.41, 2.94, 2.00, 8.55, repro,
1998-08-17,-0.82, -5.02, 0.81, 2.93, 2.00, 8.28, repro,
1998-08-18,0.70, -4.59, 9.16, 2.94, 2.00, 8.37, repro,
1998-08-19,-1.17, -3.47, 3.16, 3.01, 2.00, 8.74, repro,
1998-08-20,-1.43, -4.66, 4.49, 3.19, 2.16, 9.43, repro,
1998-08-21,0.72, -5.15, 3.17, 3.07, 2.08, 8.85, repro,
1998-08-22,-0.05, -3.37, 4.41, 3.06, 2.11, 9.02, repro,
1998-08-23,0.77, -5.22, 1.59, 2.98, 2.10, 8.63, repro,
1998-08-24,2.20, -4.00, 2.15, 3.10, 2.13, 8.64, repro,
1998-08-25,3.06, -5.39, -5.98, 3.19, 2.14, 9.19, repro,
1998-08-26,-0.57, -4.67, -1.42, 3.19, 2.15, 9.18, repro,
1998-08-27,-0.16, -5.97, 1.81, 4.91, 3.44, 16.96, repro,
1998-08-28,0.05, -6.46, -3.77, 3.04, 2.07, 8.83, repro,
1998-08-29,0.19, -6.26, 0.95, 3.08, 2.13, 8.84, repro,
1998-08-30,2.23, -6.60, -9.17, 3.04, 2.13, 8.81, repro,
1998-08-31,2.62, -5.44, 4.63, 2.99, 2.02, 8.56, repro,
1998-09-01,0.22, -7.92, -12.31, 3.12, 2.14, 9.05, repro,
1998-09-02,0.26, -4.74, -1.83, 2.95, 2.03, 8.38, repro,